Вернуться в каталог

IRIDIUM 33 DEB

АктивенPO
NORAD 35297·DEBRIS·🇺🇸 United States

Запущен Sep 14, 1997 с Baikonur Cosmodrome

Loading…

Ближайшие Пролёты (ближайшие 24 часа)

TLE

СвежийSource: Space-Track

Эпоха: Sep 14, 2026, 09:48 UTC

1 35297U 97051PM  26257.40857229  .00001134  00000-0  31149-3 0  9997
2 35297  86.3859 305.0275 0013769 313.8809  46.1256 14.46201386744090

Отслеживайте IRIDIUM 33 DEB в реальном времени с AllMySat

Download on the App Store